[[{"header":{"parameterUnit":"m.s-1","parameterCategory":1,"la1":30.2991,"la2":30.254,"lo1":-89.0895,"lo2":-89.0444,"dy":0.0017,"dx":0.0017,"nx":28,"ny":28,"refTime":"2024-08-10T03:00:00:Z","depth":0,"parameterNumber":2,"parameterNumberName":"U-component_of_WINDS"},"data":[0,0,0,0,0,0,0,0,0,0,0,0,0,0,0,0,0,0,0,0,0,0,0,0,0,0,0,0,0,0,0,0,0,0,0,0,0,0,0,0,0,0,0,0,0,0,0,0,0,0,0,0,0,0,0,0,0,0,-0.3856,-0.3857,0,-0.3908,-0.3909,-0.3909,-0.3875,-0.3873,-0.3871,-0.387,-0.3925,-0.3928,-0.3931,0,0,0,0,0,0,0,0,0,0,0,0,0,-0.3728,-0.373,-0.3856,-0.3857,-0.3858,-0.3908,-0.3909,-0.391,-0.3875,-0.3873,-0.3871,-0.3869,-0.3924,-0.3927,-0.3931,0,0,0,0,0,0,0,0,0,0,0,0,0,-0.3782,-0.3731,-0.3856,-0.3846,-0.3846,-0.3908,-0.3909,-0.391,-0.3875,-0.3873,-0.3871,-0.3868,-0.3923,-0.3927,-0.3931,-0.4007,0,0,-0.3945,-0.3947,0,0,0,0,0,0,0,0,-0.3779,-0.3787,-0.3847,-0.3847,-0.3847,-0.3882,-0.3884,-0.3942,-0.3876,-0.3864,-0.387,-0.3867,-0.3913,-0.3918,-0.3933,-0.4009,-0.4012,-0.3945,-0.3948,-0.395,-0.3951,0,0,0,0,0,0,0,-0.3776,-0.3785,-0.3877,-0.3848,-0.3848,-0.384,-0.3845,-0.3895,-0.3901,-0.3865,-0.3863,-0.3869,-0.3912,-0.3929,-0.3934,-0.4012,-0.3945,-0.3949,-0.3952,-0.3954,-0.4153,-0.4156,0,0,0,0,0,0,-0.3772,-0.3782,-0.3875,-0.3878,-0.3806,-0.3844,-0.385,-0.3873,-0.3901,-0.3903,-0.3871,-0.3867,-0.3922,-0.3929,-0.3936,-0.4027,-0.395,-0.3954,-0.3957,-0.4151,-0.4154,-0.4157,0,0,0,0,0,0,-0.377,-0.3781,-0.3873,-0.3829,-0.384,-0.3849,-0.3876,-0.3876,-0.3892,-0.3905,-0.3906,-0.3887,-0.3921,-0.393,-0.3989,-0.4028,-0.3956,-0.396,-0.4148,-0.4152,-0.4156,-0.4209,0,0,0,0,0,0,-0.3766,-0.378,-0.3809,-0.383,-0.3843,-0.3926,-0.3878,-0.3878,-0.39,-0.3895,-0.392,-0.3922,-0.392,-0.3983,-0.3994,-0.4033,-0.3964,-0.4144,-0.415,-0.4154,-0.4204,-0.4214,-0.4223,0,0,0,0,0,-0.3762,-0.3822,-0.3811,-0.3822,-0.3879,-0.3928,-0.3935,-0.3931,-0.3903,-0.3932,-0.394,-0.3921,-0.4021,-0.3989,-0.4001,-0.4043,-0.4142,-0.4148,-0.4154,-0.42,-0.4212,-0.4223,0,0,0,0,0,0,-0.3806,-0.3825,-0.3812,-0.3881,-0.3903,-0.3922,-0.3959,-0.3944,-0.3975,-0.397,-0.3963,-0.3969,-0.4032,-0.4042,-0.4006,-0.4117,-0.4077,-0.4086,-0.4108,-0.412,-0.413,-0.4127,-0.3967,0,0,0,0,0,-0.3824,-0.3862,-0.3876,-0.3936,-0.3947,-0.3951,-0.3972,-0.3967,-0.3989,-0.3999,-0.4011,-0.4035,-0.4071,-0.4096,-0.413,-0.4204,-0.421,-0.4238,-0.4248,-0.4256,-0.4264,-0.4305,-0.4318,-0.4177,-0.4176,-0.4176,0,0,-0.3861,-0.3876,-0.3901,-0.3945,-0.3961,-0.4002,-0.3959,-0.4003,-0.4034,-0.4006,-0.4063,-0.4073,-0.4098,-0.4166,-0.4196,-0.4177,-0.4304,-0.4263,-0.4269,-0.4274,-0.4312,-0.4326,-0.4338,-0.4181,-0.418,-0.4179,0,0,-0.395,-0.3964,-0.4016,-0.4033,-0.4058,-0.406,-0.4072,-0.4093,-0.4099,-0.4156,-0.4136,-0.4171,-0.4234,-0.4253,-0.4272,-0.4366,-0.435,-0.4377,-0.4429,-0.4469,-0.448,-0.449,-0.4526,-0.4538,-0.4385,-0.4385,-0.4385,0,-0.3994,-0.4054,-0.4045,-0.4091,-0.4111,-0.4086,-0.4139,-0.4156,-0.4191,-0.4206,-0.4183,-0.4262,-0.4277,-0.4349,-0.4372,-0.4387,-0.4402,-0.4376,-0.4479,-0.4489,-0.4498,-0.4532,-0.4545,-0.4388,-0.4388,-0.4388,-0.4387,0,-0.4107,-0.4148,-0.4187,-0.4221,-0.4245,-0.4295,-0.4294,-0.4319,-0.4311,-0.4315,-0.4374,-0.4391,-0.4429,-0.4444,-0.4437,-0.4516,-0.4503,-0.448,-0.4441,-0.4515,-0.4547,-0.456,-0.4393,-0.4392,-0.4391,-0.439,0,0,-0.4229,-0.4256,-0.4271,-0.4286,-0.4311,-0.4343,-0.439,-0.4426,-0.445,-0.4474,-0.4515,-0.4567,-0.4546,-0.4566,-0.456,-0.4595,-0.467,-0.4567,-0.4568,-0.4588,-0.476,-0.4779,-0.4794,-0.4659,-0.4661,-0.4663,-0.4758,0,-0.4321,-0.4404,-0.4397,-0.4476,-0.4515,-0.449,-0.4532,-0.4552,-0.4557,-0.459,-0.4595,-0.4634,-0.4602,-0.4614,-0.4647,-0.4654,-0.4705,-0.4647,-0.4698,-0.47,-0.4695,-0.4811,-0.4831,-0.4921,-0.4771,-0.4773,-0.4774,0,-0.444,-0.4469,-0.4552,-0.457,-0.4586,-0.4624,-0.4657,-0.4688,-0.471,-0.4711,-0.4733,-0.4721,-0.4769,-0.4726,-0.4793,-0.4754,-0.4774,-0.478,-0.4784,-0.4791,-0.4744,-0.4823,-0.4949,-0.4964,-0.4793,-0.4792,-0.479,0,-0.4524,-0.4582,-0.4639,-0.4653,-0.4676,-0.4703,-0.4714,-0.4733,-0.4755,-0.4783,-0.4798,-0.4831,-0.485,-0.4876,-0.4873,-0.4842,-0.4942,-0.4898,-0.4945,-0.4946,-0.497,-0.4969,-0.5104,-0.4978,-0.4978,-0.4978,-0.4978,0,-0.4629,-0.4682,-0.4677,-0.4713,-0.477,-0.4761,-0.4819,-0.4826,-0.4843,-0.488,-0.486,-0.4895,-0.4888,-0.4923,-0.492,-0.4977,-0.4985,-0.4988,-0.4988,-0.4992,-0.4992,-0.5007,-0.5002,-0.4981,-0.4981,-0.498,-0.4979,0,-0.4734,-0.4732,-0.4794,-0.481,-0.4815,-0.4857,-0.4871,-0.4905,-0.4906,-0.4953,-0.4964,-0.4967,-0.5008,-0.5006,-0.5052,-0.505,-0.512,-0.5111,-0.5113,-0.5112,-0.516,-0.5157,-0.5312,-0.5332,-0.5191,-0.5192,-0.5193,0,-0.4803,-0.4842,-0.4862,-0.4885,-0.4898,-0.4935,-0.4957,-0.4949,-0.4973,-0.5,-0.5031,-0.5068,-0.5099,-0.5164,-0.5171,-0.5206,-0.5199,-0.525,-0.5204,-0.5207,-0.5202,-0.5201,-0.5206,-0.5261,-0.5262,-0.5263,-0.5264,0,-0.4926,-0.4923,-0.4956,-0.4988,-0.5015,-0.504,-0.5063,-0.5083,-0.5077,-0.5105,-0.5146,-0.5169,-0.5215,-0.5253,-0.5286,-0.5297,-0.5281,-0.5278,-0.5291,-0.5298,-0.5299,-0.5301,-0.5141,-0.5276,-0.5275,-0.5274,-0.5273,-0.5273,-0.5017,-0.5051,-0.507,-0.5107,-0.5123,-0.5145,-0.5178,-0.5183,-0.5217,-0.5253,-0.5246,-0.5292,-0.5311,-0.5354,-0.5368,-0.5404,-0.5385,-0.5404,-0.5409,-0.5415,-0.5421,-0.529,-0.5409,-0.5409,-0.5408,-0.5408,-0.5408,0,-0.5141,-0.5152,-0.5186,-0.5218,-0.5247,-0.5227,-0.5251,-0.5277,-0.5317,-0.5337,-0.5367,-0.5413,-0.545,-0.5459,-0.5494,-0.5521,-0.5514,-0.5531,-0.553,-0.5534,-0.5434,-0.5421,-0.5536,-0.5536,-0.5536,-0.5536,-0.5536,-0.5536,-0.521,-0.5267,-0.5266,-0.5331,-0.5341,-0.5386,-0.5401,-0.5421,-0.5437,-0.549,-0.552,-0.5525,-0.5541,-0.5577,-0.5609,-0.5611,-0.5626,-0.5646,-0.5645,-0.5553,-0.554,-0.5528,-0.5516,-0.5649,-0.5649,-0.5742,-0.5743,-0.5743]},{"header":{"parameterUnit":"m.s-1","parameterCategory":1,"la1":30.2991,"la2":30.254,"lo1":-89.0895,"lo2":-89.0444,"dy":0.0017,"dx":0.0017,"nx":28,"ny":28,"refTime":"2024-08-10T03:00:00:Z","depth":0,"parameterNumber":3,"parameterNumberName":"V-component_of_WINDS"},"data":[0,0,0,0,0,0,0,0,0,0,0,0,0,0,0,0,0,0,0,0,0,0,0,0,0,0,0,0,0,0,0,0,0,0,0,0,0,0,0,0,0,0,0,0,0,0,0,0,0,0,0,0,0,0,0,0,0,0,-4.6403,-4.6404,0,-4.649,-4.6491,-4.6492,-4.6429,-4.6427,-4.6424,-4.6421,-4.6506,-4.6511,-4.6515,0,0,0,0,0,0,0,0,0,0,0,0,0,-4.6177,-4.6181,-4.6403,-4.6404,-4.6405,-4.649,-4.6491,-4.6492,-4.643,-4.6426,-4.6423,-4.642,-4.6504,-4.651,-4.6516,0,0,0,0,0,0,0,0,0,0,0,0,0,-4.6271,-4.6183,-4.6403,-4.6384,-4.6383,-4.649,-4.6491,-4.6493,-4.6431,-4.6426,-4.6422,-4.6418,-4.6502,-4.6509,-4.6517,-4.6644,0,0,-4.6539,-4.6542,0,0,0,0,0,0,0,0,-4.6265,-4.6279,-4.6386,-4.6386,-4.6385,-4.6445,-4.6442,-4.6543,-4.6432,-4.6412,-4.6421,-4.6416,-4.6489,-4.6497,-4.6522,-4.6648,-4.6652,-4.6539,-4.6544,-4.6547,-4.6549,0,0,0,0,0,0,0,-4.6259,-4.6275,-4.6437,-4.6387,-4.6387,-4.637,-4.6379,-4.6461,-4.6473,-4.6414,-4.6409,-4.6421,-4.6487,-4.6515,-4.6523,-4.6653,-4.6539,-4.6546,-4.655,-4.6553,-4.6888,-4.6892,0,0,0,0,0,0,-4.6255,-4.627,-4.6434,-4.644,-4.6314,-4.6377,-4.6387,-4.643,-4.6472,-4.6474,-4.6424,-4.6418,-4.6505,-4.6515,-4.6526,-4.6679,-4.6547,-4.6554,-4.6558,-4.6884,-4.6889,-4.6894,0,0,0,0,0,0,-4.625,-4.627,-4.6431,-4.6354,-4.6373,-4.6386,-4.6434,-4.6434,-4.6461,-4.648,-4.6481,-4.6451,-4.6502,-4.6516,-4.6616,-4.6681,-4.6557,-4.6563,-4.6878,-4.6885,-4.6892,-4.6985,0,0,0,0,0,0,-4.6244,-4.6269,-4.6319,-4.6355,-4.6377,-4.6521,-4.6438,-4.6438,-4.6474,-4.6467,-4.6505,-4.6507,-4.65,-4.6605,-4.6623,-4.6688,-4.6569,-4.6872,-4.6881,-4.6889,-4.6976,-4.6994,-4.7009,0,0,0,0,0,-4.6236,-4.6341,-4.6322,-4.6342,-4.644,-4.6525,-4.6537,-4.6528,-4.648,-4.653,-4.6541,-4.6506,-4.6671,-4.6616,-4.6635,-4.6704,-4.6868,-4.6879,-4.6889,-4.6968,-4.699,-4.7009,0,0,0,0,0,0,-4.631,-4.6345,-4.6325,-4.6444,-4.6482,-4.6514,-4.6576,-4.6551,-4.6602,-4.6593,-4.6577,-4.6586,-4.6691,-4.6707,-4.6646,-4.6829,-4.6762,-4.6776,-4.6815,-4.6836,-4.6853,-4.6847,-4.6575,0,0,0,0,0,-4.634,-4.6407,-4.6434,-4.6537,-4.6557,-4.6564,-4.66,-4.659,-4.6627,-4.6643,-4.6662,-4.6699,-4.6758,-4.6798,-4.6854,-4.6978,-4.6984,-4.7034,-4.7051,-4.7064,-4.7077,-4.7143,-4.7165,-4.6928,-4.6928,-4.6927,0,0,-4.6403,-4.6431,-4.6474,-4.6552,-4.658,-4.6649,-4.6577,-4.6653,-4.6703,-4.6653,-4.675,-4.6765,-4.6804,-4.6917,-4.6967,-4.6933,-4.7144,-4.7077,-4.7088,-4.7094,-4.7156,-4.7178,-4.7199,-4.6935,-4.6933,-4.6932,0,0,-4.6553,-4.6581,-4.667,-4.67,-4.6744,-4.6748,-4.6769,-4.6805,-4.6814,-4.691,-4.6874,-4.6932,-4.7036,-4.7066,-4.7095,-4.7256,-4.7225,-4.7275,-4.7362,-4.7426,-4.7445,-4.7462,-4.7519,-4.754,-4.7287,-4.7288,-4.7288,0,-4.6625,-4.6729,-4.6718,-4.6797,-4.6832,-4.6792,-4.6881,-4.691,-4.6969,-4.6994,-4.6956,-4.7085,-4.7109,-4.7228,-4.7267,-4.7292,-4.7315,-4.727,-4.7444,-4.746,-4.7475,-4.753,-4.7551,-4.7293,-4.7293,-4.7292,-4.7291,0,-4.6815,-4.6888,-4.6954,-4.7014,-4.7057,-4.714,-4.7141,-4.7184,-4.717,-4.7177,-4.7275,-4.7303,-4.7364,-4.7391,-4.7377,-4.7507,-4.7485,-4.7446,-4.7377,-4.7504,-4.7555,-4.7575,-4.7301,-4.7299,-4.7298,-4.7296,0,0,-4.7014,-4.7068,-4.7093,-4.712,-4.7165,-4.722,-4.7301,-4.7362,-4.74,-4.7442,-4.7509,-4.7597,-4.7561,-4.7594,-4.7583,-4.764,-4.7765,-4.7593,-4.7593,-4.7624,-4.791,-4.794,-4.7964,-4.7745,-4.7749,-4.7752,-4.7906,0,-4.7167,-4.731,-4.7303,-4.7436,-4.7502,-4.7465,-4.7535,-4.757,-4.7578,-4.7634,-4.7643,-4.7706,-4.7654,-4.7673,-4.7728,-4.7739,-4.7822,-4.7727,-4.7806,-4.7809,-4.7797,-4.7991,-4.8022,-4.8167,-4.7926,-4.793,-4.7932,0,-4.7364,-4.7415,-4.7556,-4.7591,-4.7619,-4.7682,-4.7738,-4.7792,-4.783,-4.7832,-4.7869,-4.7849,-4.7929,-4.7858,-4.7968,-4.7903,-4.7934,-4.7945,-4.795,-4.7957,-4.7878,-4.8003,-4.8213,-4.8235,-4.7963,-4.7961,-4.7959,0,-4.7495,-4.7598,-4.7696,-4.772,-4.7764,-4.781,-4.783,-4.7864,-4.7901,-4.7949,-4.7972,-4.8028,-4.8059,-4.8102,-4.8096,-4.8046,-4.8208,-4.8137,-4.8211,-4.8211,-4.8247,-4.8245,-4.8465,-4.8267,-4.8267,-4.8266,-4.8266,0,-4.7666,-4.7754,-4.7756,-4.7816,-4.7912,-4.7902,-4.7997,-4.8012,-4.8042,-4.8103,-4.8074,-4.8131,-4.8121,-4.8178,-4.8173,-4.8265,-4.8278,-4.8281,-4.8279,-4.8285,-4.8284,-4.8305,-4.8295,-4.8272,-4.8271,-4.827,-4.8269,0,-4.7829,-4.7834,-4.7938,-4.7972,-4.7982,-4.8052,-4.8079,-4.8135,-4.8142,-4.8219,-4.8237,-4.8246,-4.8311,-4.831,-4.8384,-4.8381,-4.8493,-4.848,-4.8481,-4.8479,-4.8553,-4.8546,-4.8794,-4.8826,-4.8608,-4.861,-4.8611,0,-4.7939,-4.8005,-4.8046,-4.8086,-4.811,-4.8174,-4.8212,-4.8204,-4.8244,-4.8293,-4.8343,-4.8406,-4.8456,-4.8562,-4.8574,-4.863,-4.8618,-4.8701,-4.8626,-4.8629,-4.8619,-4.8615,-4.8622,-4.8716,-4.8718,-4.872,-4.8722,0,-4.8132,-4.8131,-4.8188,-4.8247,-4.8294,-4.8339,-4.838,-4.8413,-4.841,-4.8457,-4.8524,-4.8563,-4.864,-4.8702,-4.8756,-4.8775,-4.8748,-4.8745,-4.8765,-4.8771,-4.877,-4.8772,-4.8522,-4.874,-4.8738,-4.8736,-4.8735,-4.8735,-4.8271,-4.8329,-4.8367,-4.8432,-4.8462,-4.8502,-4.8556,-4.857,-4.8626,-4.8689,-4.868,-4.8756,-4.879,-4.8861,-4.8884,-4.8942,-4.8912,-4.8942,-4.8949,-4.8956,-4.8965,-4.8761,-4.8952,-4.8951,-4.8951,-4.895,-4.895,0,-4.8463,-4.8486,-4.8545,-4.8605,-4.8656,-4.8627,-4.8671,-4.8715,-4.8782,-4.8818,-4.8869,-4.8946,-4.9006,-4.9023,-4.9081,-4.9124,-4.9113,-4.914,-4.9136,-4.9141,-4.8988,-4.8965,-4.9148,-4.9148,-4.9148,-4.9148,-4.9147,-4.9147,-4.8569,-4.8665,-4.8668,-4.8779,-4.88,-4.8875,-4.8903,-4.8938,-4.8967,-4.9055,-4.9106,-4.9118,-4.9146,-4.9205,-4.9259,-4.9262,-4.9285,-4.9317,-4.9315,-4.9172,-4.9152,-4.9133,-4.9111,-4.9322,-4.9322,-4.9463,-4.9465,-4.9466]}]]